FW8091 Weather Reports


Display with metric or nautical units.
time (UTC)temp
F
wind
direction
speed
MPH
gust
MPH
rain 1hr
in
rain 24hr
in
rain mn
in
humidity
%
barometer
mb
20260508090049 62 244 2.0 4.0 0.00 0.54 0.00 59 1016.5
20260508084543 62 265 3.0 6.0 0.00 0.54 0.00 59 1016.5
20260508083042 61 285 1.0 4.0 0.00 0.54 0.00 59 1016.2
20260508081540 61 263 0.0 4.0 0.00 0.54 0.00 59 1016.2
20260508080038 61 260 0.0 6.0 0.00 0.54 0.00 59 1016.4
20260508074535 61 267 3.0 6.0 0.00 0.54 0.00 60 1016.2
20260508073034 61 338 1.0 3.0 0.00 0.54 0.00 60 1015.6
20260508071531 60 341 2.0 3.0 0.00 0.54 0.00 60 1015.2
20260508070028 60 343 1.0 4.0 0.00 0.54 0.00 61 1015.2
20260508064548 59 233 1.0 4.0 0.00 0.54 0.00 61 1015.4
20260508063027 58 304 2.0 7.0 0.00 0.54 0.00 61 1015.2
20260508061519 58 301 1.0 4.0 0.00 0.54 0.00 61 1014.9
20260508060018 57 298 2.0 4.0 0.00 0.54 0.00 61 1015.0
20260508054527 57 292 2.0 4.0 0.00 0.54 0.00 61 1014.7
20260508053018 57 312 3.0 5.0 0.00 0.54 0.00 61 1014.7
20260508051523 57 299 3.0 8.0 0.00 0.54 0.00 61 1014.6
20260508050018 57 302 4.0 8.0 0.00 0.54 0.00 62 1014.5
20260508044511 56 297 5.0 8.0 0.00 0.54 0.00 64 1014.2
20260508043013 56 289 5.0 8.0 0.00 0.54 0.00 64 1014.2
20260508041510 56 291 5.0 8.0 0.00 0.54 0.00 64 1014.3
20260508040007 56 280 3.0 6.0 0.00 0.54 0.00 65 1014.3
20260508034519 56 359 2.0 3.0 0.00 0.54 0.00 65 1014.0
20260508033005 56 313 3.0 5.0 0.00 0.54 0.00 65 1014.0
20260508031504 56 310 2.0 5.0 0.00 0.54 0.00 65 1014.1
20260508030107 56 295 3.0 5.0 0.00 0.54 0.00 65 1014.6
20260508024600 56 254 2.0 6.0 0.00 0.54 0.00 65 1014.8
20260508023059 56 359 3.0 6.0 0.00 0.54 0.00 66 1014.5
20260508021605 56 312 5.0 8.0 0.00 0.54 0.00 66 1014.5
20260508020055 56 305 3.0 7.0 0.00 0.54 0.00 66 1014.8
20260508014554 56 359 4.0 5.0 0.00 0.54 0.00 66 1014.7
20260508013053 56 359 3.0 6.0 0.00 0.54 0.00 66 1014.7
20260508011556 56 325 4.0 8.0 0.00 0.54 0.00 67 1014.8
20260508010026 56 316 5.0 8.0 0.00 0.54 0.00 67 1015.1
20260508004531 56 359 3.0 5.0 0.00 0.54 0.00 67 1015.3
20260508003012 56 319 4.0 8.0 0.00 0.54 0.00 67 1015.6
20260508001510 57 321 4.0 6.0 0.00 0.54 0.00 67 1015.7
20260508000008 57 359 4.0 6.0 0.00 0.54 0.00 67 1016.0
20260507234508 57 319 4.0 6.0 0.00 0.54 0.54 67 1016.0
20260507233001 57 335 4.0 6.0 0.00 0.54 0.54 67 1016.1
20260507231615 57 305 4.0 5.0 0.00 0.54 0.54 66 1016.2
20260507224559 58 320 2.0 4.0 0.00 0.54 0.54 66 1016.4
20260507223056 57 328 4.0 6.0 0.00 0.54 0.54 66 1016.3
20260507221600 58 310 4.0 8.0 0.00 0.54 0.54 65 1016.2
20260507220053 58 307 4.0 6.0 0.00 0.54 0.54 65 1016.1
20260507214551 58 332 3.0 6.0 0.00 0.54 0.54 65 1015.8
20260507213019 58 330 3.0 8.0 0.00 0.54 0.54 65 1015.7
20260507211520 58 354 6.0 9.0 0.00 0.54 0.54 64 1015.8
20260507210016 59 354 4.0 8.0 0.00 0.54 0.54 64 1015.5
20260507204515 59 15 6.0 10.0 0.00 0.54 0.54 64 1015.5
20260507203015 59 32 6.0 12.0 0.00 0.54 0.54 64 1015.6
20260507201516 59 13 6.0 11.0 0.00 0.54 0.54 64 1015.5
20260507200009 59 17 6.0 10.0 0.00 0.54 0.54 64 1015.4
20260507194506 59 33 5.0 9.0 0.00 0.54 0.54 65 1015.1
20260507193005 59 13 5.0 10.0 0.00 0.54 0.54 65 1015.0
20260507191507 59 19 7.0 12.0 0.00 0.54 0.54 65 1014.7
20260507190003 60 343 5.0 14.0 0.00 0.54 0.54 65 1014.3
20260507184501 60 23 11.0 18.0 0.00 0.54 0.54 64 1014.2
20260507183058 60 27 9.0 15.0 0.00 0.54 0.54 65 1014.0
20260507181559 62 39 9.0 12.0 0.00 0.54 0.54 65 1013.8
20260507180028 62 12 9.0 12.0 0.01 0.54 0.54 64 1013.7
20260507174543 62 343 5.0 9.0 0.01 0.54 0.54 64 1013.7
20260507173028 62 343 3.0 6.0 0.01 0.54 0.54 64 1013.8
20260507171535 62 324 3.0 10.0 0.01 0.54 0.54 63 1013.6
20260507170026 62 4 4.0 8.0 0.00 0.54 0.54 62 1013.7
20260507164525 62 12 5.0 7.0 0.00 0.54 0.54 62 1013.6
20260507163023 63 37 5.0 9.0 0.00 0.54 0.54 61 1013.3
20260507161522 62 12 7.0 11.0 0.00 0.54 0.54 61 1013.4
20260507160021 64 48 5.0 8.0 0.00 0.54 0.54 63 1013.1
20260507154521 63 62 4.0 5.0 0.00 0.54 0.54 63 1012.9
20260507153022 63 21 1.0 5.0 0.00 0.54 0.54 63 1013.0
20260507151517 63 88 2.0 4.0 0.00 0.54 0.54 62 1013.0
20260507150017 63 80 4.0 10.0 0.00 0.54 0.54 61 1013.1
20260507144516 64 70 5.0 7.0 0.00 0.54 0.54 61 1013.0
20260507143015 63 15 5.0 10.0 0.00 0.54 0.54 61 1012.9
20260507141512 62 18 6.0 11.0 0.00 0.54 0.54 61 1012.9
20260507140027 61 43 5.0 9.0 0.02 0.54 0.54 62 1012.9
20260507134512 60 354 5.0 13.0 0.38 0.54 0.54 63 1012.9
20260507133011 59 41 9.0 13.0 0.39 0.54 0.54 64 1013.4
20260507131507 59 32 2.0 6.0 0.43 0.54 0.54 65 1013.7
20260507130006 59 37 3.0 19.0 0.43 0.52 0.52 65 1013.9
20260507124503 59 247 5.0 9.0 0.13 0.16 0.16 65 1013.6
20260507123003 59 292 5.0 9.0 0.13 0.14 0.14 63 1013.9
20260507121532 59 210 6.0 11.0 0.11 0.11 0.11 63 1013.9
20260507120031 59 177 5.0 10.0 0.09 0.09 0.09 62 1013.8
20260507114553 63 140 5.0 11.0 0.03 0.03 0.03 62 1014.5
20260507113125 64 75 12.0 21.0 0.01 0.01 0.01 61 1014.4
20260507111550 64 37 14.0 21.0 0.00 0.00 0.00 61 1014.0
20260507110048 64 43 14.0 20.0 0.00 0.00 0.00 61 1014.2
20260507104558 64 32 13.0 22.0 0.00 0.00 0.00 62 1014.1
20260507103047 64 63 12.0 18.0 0.00 0.00 0.00 62 1014.3
20260507101544 64 41 12.0 18.0 0.00 0.00 0.00 63 1014.4
20260507100053 64 33 12.0 19.0 0.00 0.00 0.00 63 1014.3
20260507094540 64 60 12.0 20.0 0.00 0.00 0.00 62 1014.2
20260507093040 64 49 13.0 22.0 0.00 0.00 0.00 62 1014.1
20260507091541 64 54 12.0 21.0 0.00 0.00 0.00 61 1014.3